{"data":{"norad_id":65962,"intl_designator":"2025-228R","name":"KUIPER-00136","alt_names":[],"object_type":"PAYLOAD","status":"ACTIVE","operator":null,"country":"US","launch_date":"2025-10-14","launch_site_code":"AFETR","launch_vehicle":null,"mission":null,"orbit_class":"UNKNOWN","rcs_meters":null,"size_class":null,"mass_kg":null,"dimensions":null,"purposes":[],"wikipedia_slug":null,"has_3d_model":false,"image_url":null,"decayed_at":null,"tle_current":{"epoch":"2026-09-20T06:17:31.323840Z","epoch_age_seconds":160925,"freshness":"FRESH","line1":"1 65962U 25228R   26263.26216810  .00001153  00000+0  18005-3 0  9998","line2":"2 65962  51.9008 207.7519 0000710  60.7839 299.3194 14.79966274 52217","mean_motion":14.79966274,"eccentricity":7.1e-5,"inclination_deg":51.9008,"raan_deg":207.7519,"arg_perigee_deg":60.7839,"mean_anomaly_deg":299.3194,"bstar":0.00018005,"rev_number":5221,"period_min":97.299514542856,"perigee_km":628.93305607115,"apogee_km":629.92813066941,"semimajor_km":7007.5675933703,"source":"CELESTRAK","updated_at":"2026-09-21T09:00:15.681969Z"}}}